[[{"header":{"parameterUnit":"m.s-1","parameterCategory":1,"la1":30.2991,"la2":30.254,"lo1":-89.0895,"lo2":-89.0444,"dy":0.0017,"dx":0.0017,"nx":28,"ny":28,"refTime":"2024-05-17T21:00:00:Z","depth":0,"parameterNumber":2,"parameterNumberName":"U-component_of_WINDS"},"data":[0,0,0,0,0,0,0,0,0,0,0,0,0,0,0,0,0,0,0,0,0,0,0,0,0,0,0,0,0,0,0,0,0,0,0,0,0,0,0,0,0,0,0,0,0,0,0,0,0,0,0,0,0,0,0,0,0,0,-1.935,-1.935,0,-1.9394,-1.9395,-1.9395,-1.937,-1.9368,-1.9367,-1.9366,-1.9415,-1.9417,-1.942,0,0,0,0,0,0,0,0,0,0,0,0,0,-1.9249,-1.9251,-1.935,-1.935,-1.9351,-1.9394,-1.9395,-1.9395,-1.937,-1.9368,-1.9367,-1.9365,-1.9414,-1.9417,-1.942,0,0,0,0,0,0,0,0,0,0,0,0,0,-1.9293,-1.9252,-1.935,-1.9343,-1.9343,-1.9394,-1.9395,-1.9396,-1.937,-1.9368,-1.9366,-1.9365,-1.9413,-1.9417,-1.942,-1.9481,0,0,-1.9432,-1.9433,0,0,0,0,0,0,0,0,-1.9291,-1.9297,-1.9344,-1.9344,-1.9344,-1.9374,-1.9377,-1.9424,-1.9371,-1.936,-1.9366,-1.9364,-1.9403,-1.9408,-1.942,-1.9483,-1.9485,-1.9432,-1.9434,-1.9436,-1.9437,0,0,0,0,0,0,0,-1.9288,-1.9295,-1.9368,-1.9345,-1.9345,-1.934,-1.9344,-1.9386,-1.9392,-1.9361,-1.9359,-1.9364,-1.9403,-1.9417,-1.9421,-1.9486,-1.9432,-1.9435,-1.9437,-1.9439,-1.9606,-1.9608,0,0,0,0,0,0,-1.9284,-1.9292,-1.9366,-1.9369,-1.9312,-1.9344,-1.9348,-1.9367,-1.9391,-1.9393,-1.9366,-1.9363,-1.9411,-1.9417,-1.9423,-1.9498,-1.9436,-1.9439,-1.9441,-1.9604,-1.9606,-1.9609,0,0,0,0,0,0,-1.9282,-1.9291,-1.9364,-1.933,-1.9339,-1.9347,-1.9368,-1.9368,-1.9382,-1.9395,-1.9396,-1.9379,-1.941,-1.9417,-1.9467,-1.9499,-1.9441,-1.9444,-1.9601,-1.9604,-1.9607,-1.9646,0,0,0,0,0,0,-1.9279,-1.929,-1.9312,-1.9331,-1.9341,-1.9406,-1.937,-1.9371,-1.9388,-1.9385,-1.9407,-1.9409,-1.9409,-1.9462,-1.9471,-1.9503,-1.9447,-1.9598,-1.9602,-1.9606,-1.9642,-1.9651,-1.9658,0,0,0,0,0,-1.9276,-1.9321,-1.9313,-1.9322,-1.9368,-1.9408,-1.9414,-1.9412,-1.9391,-1.9414,-1.9423,-1.9409,-1.9494,-1.9467,-1.9477,-1.9511,-1.9596,-1.9601,-1.9606,-1.9639,-1.9649,-1.9658,0,0,0,0,0,0,-1.9306,-1.9323,-1.9315,-1.9367,-1.9386,-1.9404,-1.9432,-1.9422,-1.9449,-1.9445,-1.9442,-1.9447,-1.95,-1.951,-1.948,-1.9573,-1.9542,-1.9549,-1.9564,-1.9573,-1.9581,-1.9577,-1.945,0,0,0,0,0,-1.9319,-1.9349,-1.9363,-1.9408,-1.9418,-1.9424,-1.9441,-1.9438,-1.9458,-1.9467,-1.9479,-1.9501,-1.9533,-1.9554,-1.9584,-1.9644,-1.9651,-1.9673,-1.968,-1.9687,-1.9693,-1.9729,-1.974,-1.9625,-1.9625,-1.9625,0,0,-1.9346,-1.9359,-1.9378,-1.9414,-1.9429,-1.9462,-1.9431,-1.9466,-1.9491,-1.9472,-1.952,-1.9531,-1.9555,-1.9611,-1.9637,-1.9622,-1.9727,-1.9693,-1.9698,-1.9701,-1.9735,-1.9746,-1.9756,-1.9628,-1.9628,-1.9627,0,0,-1.9411,-1.9423,-1.9463,-1.9479,-1.9501,-1.9505,-1.9515,-1.9535,-1.9541,-1.9589,-1.9577,-1.9608,-1.9662,-1.9681,-1.9697,-1.9774,-1.9763,-1.9784,-1.9824,-1.986,-1.9869,-1.9877,-1.9906,-1.9917,-1.9791,-1.9791,-1.9791,0,-1.9442,-1.9489,-1.9485,-1.9522,-1.954,-1.9525,-1.9567,-1.9583,-1.9615,-1.9628,-1.9611,-1.9681,-1.9696,-1.9758,-1.9777,-1.9791,-1.9804,-1.9781,-1.9867,-1.9876,-1.9883,-1.9911,-1.9922,-1.9793,-1.9793,-1.9793,-1.9792,0,-1.9527,-1.956,-1.959,-1.9621,-1.9642,-1.9682,-1.9686,-1.9709,-1.9705,-1.9712,-1.9763,-1.9781,-1.9816,-1.9831,-1.9827,-1.9893,-1.9884,-1.9867,-1.9836,-1.9897,-1.9923,-1.9934,-1.9797,-1.9796,-1.9795,-1.9795,0,0,-1.961,-1.964,-1.9651,-1.9667,-1.9692,-1.9719,-1.9759,-1.9793,-1.9813,-1.9837,-1.9872,-1.9921,-1.9906,-1.9926,-1.9924,-1.9955,-2.0018,-1.9935,-1.9936,-1.9952,-2.0096,-2.0109,-2.0121,-2.0012,-2.0014,-2.0015,-2.0094,0,-1.9678,-1.9747,-1.9747,-1.9811,-1.9844,-1.9832,-1.9867,-1.9888,-1.9897,-1.9928,-1.9938,-1.9973,-1.995,-1.9962,-1.9992,-2.0004,-2.0047,-1.9998,-2.0047,-2.0049,-2.0041,-2.0134,-2.0147,-2.0221,-2.0104,-2.0106,-2.0107,0,-1.9766,-1.9792,-1.986,-1.9884,-1.9897,-1.9929,-1.9962,-1.999,-2.0015,-2.002,-2.0043,-2.0038,-2.0082,-2.0051,-2.0113,-2.008,-2.0101,-2.011,-2.0113,-2.0118,-2.0082,-2.0143,-2.0244,-2.0256,-2.0123,-2.0122,-2.0121,0,-1.9823,-1.9875,-1.9923,-1.9936,-1.9964,-1.9987,-2.0,-2.0023,-2.0045,-2.0074,-2.0088,-2.0123,-2.0142,-2.017,-2.0176,-2.0152,-2.024,-2.0208,-2.0247,-2.0247,-2.0266,-2.0265,-2.0373,-2.0278,-2.0278,-2.0278,-2.0277,0,-1.9899,-1.9941,-1.9949,-1.9979,-2.0027,-2.0028,-2.0076,-2.0088,-2.0109,-2.0143,-2.0135,-2.0167,-2.0173,-2.0207,-2.0213,-2.0266,-2.0274,-2.0281,-2.0282,-2.0282,-2.0281,-2.0295,-2.0291,-2.028,-2.028,-2.0279,-2.0279,0,-1.997,-1.9976,-2.0028,-2.0051,-2.0058,-2.0093,-2.0113,-2.0144,-2.0152,-2.0195,-2.0206,-2.022,-2.026,-2.0269,-2.0317,-2.0321,-2.0385,-2.038,-2.0376,-2.0376,-2.0415,-2.0412,-2.0537,-2.0555,-2.0447,-2.0448,-2.0448,0,-2.0018,-2.0051,-2.0077,-2.0099,-2.0113,-2.0148,-2.017,-2.0173,-2.0197,-2.0229,-2.0256,-2.0296,-2.0328,-2.0394,-2.041,-2.0448,-2.0445,-2.0487,-2.0451,-2.0451,-2.0448,-2.0447,-2.0451,-2.0494,-2.0495,-2.0496,-2.0496,0,-2.0105,-2.0107,-2.0138,-2.0171,-2.0197,-2.0224,-2.0249,-2.0268,-2.0275,-2.0303,-2.0344,-2.0369,-2.0419,-2.046,-2.0498,-2.0515,-2.0508,-2.0508,-2.0519,-2.052,-2.0517,-2.0521,-2.0396,-2.0505,-2.0504,-2.0503,-2.0503,-2.0502,-2.0167,-2.0196,-2.022,-2.0256,-2.0276,-2.03,-2.033,-2.0343,-2.0377,-2.0417,-2.0418,-2.0463,-2.0492,-2.0543,-2.0562,-2.06,-2.0587,-2.0603,-2.0607,-2.0612,-2.0616,-2.051,-2.0606,-2.0606,-2.0606,-2.0606,-2.0606,0,-2.0254,-2.027,-2.0303,-2.0339,-2.0368,-2.0358,-2.0386,-2.0412,-2.0452,-2.0478,-2.051,-2.0559,-2.06,-2.062,-2.0661,-2.0687,-2.0686,-2.0698,-2.0697,-2.0701,-2.0624,-2.061,-2.0699,-2.0699,-2.0699,-2.0699,-2.0699,-2.0699,-2.0303,-2.0353,-2.0359,-2.042,-2.0436,-2.0479,-2.0497,-2.0521,-2.0542,-2.0597,-2.063,-2.0642,-2.0668,-2.0711,-2.0748,-2.0754,-2.077,-2.0785,-2.0789,-2.0716,-2.0706,-2.0697,-2.0685,-2.0788,-2.0788,-2.0863,-2.0864,-2.0864]},{"header":{"parameterUnit":"m.s-1","parameterCategory":1,"la1":30.2991,"la2":30.254,"lo1":-89.0895,"lo2":-89.0444,"dy":0.0017,"dx":0.0017,"nx":28,"ny":28,"refTime":"2024-05-17T21:00:00:Z","depth":0,"parameterNumber":3,"parameterNumberName":"V-component_of_WINDS"},"data":[0,0,0,0,0,0,0,0,0,0,0,0,0,0,0,0,0,0,0,0,0,0,0,0,0,0,0,0,0,0,0,0,0,0,0,0,0,0,0,0,0,0,0,0,0,0,0,0,0,0,0,0,0,0,0,0,0,0,4.3682,4.3683,0,4.3767,4.3768,4.3769,4.3826,4.3827,4.3827,4.3828,4.3912,4.3913,4.3915,0,0,0,0,0,0,0,0,0,0,0,0,0,4.3567,4.3568,4.3682,4.3683,4.3684,4.3767,4.3768,4.3769,4.3826,4.3827,4.3827,4.3828,4.3911,4.3913,4.3915,0,0,0,0,0,0,0,0,0,0,0,0,0,4.363,4.3569,4.3682,4.3723,4.3727,4.3767,4.3768,4.377,4.3826,4.3827,4.3828,4.3828,4.391,4.3913,4.3916,4.392,0,0,4.3924,4.3925,0,0,0,0,0,0,0,0,4.3627,4.3635,4.3716,4.372,4.3725,4.3787,4.3758,4.382,4.3826,4.3789,4.3828,4.3828,4.3869,4.3876,4.389,4.3924,4.3928,4.3924,4.3926,4.3927,4.3928,0,0,0,0,0,0,0,4.3622,4.3631,4.3716,4.3717,4.3722,4.3736,4.3746,4.377,4.3824,4.3792,4.3796,4.3806,4.3872,4.3887,4.3892,4.3929,4.3924,4.3927,4.3928,4.393,4.3973,4.3972,0,0,0,0,0,0,4.3612,4.3627,4.3713,4.3718,4.3677,4.3738,4.3749,4.3766,4.3824,4.3834,4.3805,4.3808,4.3882,4.3889,4.3896,4.3906,4.3927,4.393,4.3931,4.3973,4.3973,4.3972,0,0,0,0,0,0,4.3609,4.3619,4.3709,4.3674,4.3687,4.3739,4.3758,4.3768,4.3783,4.3834,4.3844,4.3811,4.3883,4.3892,4.3914,4.391,4.3931,4.3934,4.3974,4.3973,4.3972,4.3926,0,0,0,0,0,0,4.3606,4.3618,4.362,4.3674,4.3688,4.3727,4.3758,4.3769,4.3788,4.3793,4.3842,4.3851,4.3884,4.391,4.3917,4.3914,4.3936,4.3974,4.3973,4.3972,4.3928,4.3924,4.392,0,0,0,0,0,4.3601,4.3603,4.362,4.363,4.3693,4.3727,4.3735,4.3774,4.3787,4.379,4.3824,4.3849,4.3909,4.3912,4.392,4.3918,4.3975,4.3974,4.3973,4.393,4.3925,4.392,0,0,0,0,0,0,4.3546,4.3611,4.363,4.365,4.3683,4.3736,4.3742,4.3767,4.3796,4.3799,4.3845,4.3856,4.3874,4.3898,4.39,4.3926,4.3945,4.3945,4.391,4.3905,4.3901,4.3895,4.3938,0,0,0,0,0,4.3537,4.356,4.3614,4.3626,4.3641,4.3688,4.3705,4.3732,4.3768,4.3781,4.3816,4.3849,4.3875,4.3891,4.3918,4.3932,4.3944,4.3934,4.393,4.3927,4.3927,4.3937,4.3933,4.3968,4.3968,4.3968,0,0,4.3516,4.3555,4.3566,4.3616,4.3645,4.3667,4.37,4.3722,4.3739,4.3784,4.3809,4.3835,4.3874,4.3893,4.3903,4.3914,4.392,4.3925,4.3922,4.3924,4.3935,4.3932,4.3929,4.3967,4.3967,4.3968,0,0,4.3492,4.3522,4.3536,4.3565,4.3608,4.364,4.3643,4.3694,4.3713,4.3739,4.3774,4.3794,4.3838,4.3865,4.3884,4.3871,4.3896,4.3878,4.3857,4.3866,4.3863,4.3861,4.3857,4.3855,4.3878,4.3878,4.3878,0,4.3461,4.3497,4.354,4.356,4.3581,4.3625,4.3639,4.3664,4.3714,4.3727,4.3739,4.3796,4.3825,4.3851,4.3848,4.3862,4.3867,4.3873,4.386,4.3859,4.3857,4.3854,4.3852,4.3875,4.3876,4.3876,4.3876,0,4.3458,4.3482,4.3488,4.3536,4.3558,4.3575,4.362,4.3636,4.3662,4.3692,4.3717,4.3754,4.379,4.3798,4.3822,4.3828,4.3833,4.3852,4.3872,4.3851,4.3849,4.3848,4.3872,4.3873,4.3873,4.3874,0,0,4.3401,4.3473,4.3475,4.3498,4.355,4.3569,4.3588,4.3624,4.3638,4.367,4.3688,4.3724,4.3743,4.3765,4.3792,4.38,4.3789,4.3819,4.382,4.3812,4.3798,4.3784,4.3782,4.3805,4.3805,4.3805,4.3795,0,4.3384,4.3422,4.3462,4.3485,4.3509,4.3551,4.3568,4.3601,4.3629,4.3653,4.3684,4.371,4.3731,4.3745,4.3755,4.3788,4.3786,4.3789,4.3822,4.3823,4.3812,4.3781,4.3766,4.3754,4.3794,4.3794,4.3794,0,4.3371,4.3403,4.343,4.348,4.3492,4.3506,4.3543,4.3565,4.3603,4.3623,4.3649,4.3679,4.3701,4.3718,4.3749,4.375,4.3765,4.3783,4.3784,4.3789,4.3807,4.3786,4.3752,4.375,4.3793,4.3793,4.3793,0,4.3328,4.3378,4.3401,4.3419,4.3478,4.3487,4.3512,4.3551,4.3571,4.3603,4.3616,4.3649,4.3668,4.3692,4.3731,4.3739,4.3758,4.3778,4.3775,4.3774,4.3778,4.3777,4.3746,4.3786,4.3786,4.3786,4.3786,0,4.3306,4.3321,4.3382,4.3396,4.3414,4.3459,4.3475,4.3503,4.3538,4.3558,4.3596,4.3613,4.3662,4.3686,4.3715,4.3737,4.3745,4.3762,4.377,4.3759,4.3757,4.377,4.3772,4.3786,4.3786,4.3786,4.3786,0,4.3262,4.3303,4.3331,4.3385,4.3399,4.341,4.3456,4.3471,4.3502,4.3527,4.3535,4.3584,4.3613,4.3654,4.3695,4.3715,4.3733,4.3745,4.3721,4.3726,4.3721,4.3721,4.3699,4.3698,4.3737,4.3736,4.3736,0,4.3245,4.3258,4.3314,4.3331,4.3355,4.3381,4.3402,4.3446,4.3466,4.3511,4.3521,4.3554,4.3583,4.3628,4.3666,4.3698,4.3712,4.3702,4.3717,4.3706,4.3713,4.3712,4.3714,4.3698,4.3697,4.3697,4.3696,0,4.3213,4.3233,4.3262,4.3299,4.3323,4.3353,4.3385,4.3396,4.3447,4.3467,4.3499,4.3521,4.3565,4.3597,4.3635,4.3659,4.3686,4.3691,4.3693,4.3682,4.3668,4.3677,4.3712,4.3692,4.3692,4.3693,4.3693,4.3693,4.3183,4.3197,4.3239,4.327,4.3299,4.3328,4.3346,4.3379,4.3407,4.3446,4.347,4.3501,4.354,4.3593,4.3617,4.3641,4.3652,4.3653,4.3654,4.3654,4.3651,4.3664,4.3648,4.3648,4.3648,4.3649,4.3649,0,4.3153,4.3183,4.3211,4.3256,4.328,4.3304,4.3341,4.336,4.3387,4.3421,4.3449,4.3485,4.3517,4.3558,4.3593,4.3604,4.3617,4.3612,4.3612,4.3617,4.3639,4.3635,4.3601,4.3601,4.3601,4.3601,4.3601,4.3601,4.3141,4.3166,4.3191,4.3231,4.326,4.3291,4.331,4.3338,4.3365,4.3405,4.3432,4.3459,4.3496,4.3534,4.3564,4.3575,4.3586,4.3577,4.3592,4.3611,4.3616,4.362,4.3616,4.3579,4.3579,4.3568,4.3568,4.3568]}]]